User: anonymous   Login
Location: St. Louis
(38.6270°N, 90.1994°W)
Time: 14:18:57
(UTC-06:00)
Language:

RS-15 - Orbit

View from above orbital plane
View from above orbital plane
View from above satellite
View from above satellite

Ground track
Ground track

The orbit data is extracted from the following two-line orbital elements,

1 23439U 94085A   22019.57486645 -.00000037  00000-0  15882-3 0  9994
2 23439  64.8186  26.4150 0166724 297.8925  60.5200 11.27571237114704
Epoch (UTC): 19 January 2022 13:47:48
Eccentricity: 0.0166724
inclination: 64.8186°
perigee height: 1882 km
apogee height: 2162 km
right ascension of ascending node: 26.4150°
argument of perigee: 297.8925°
revolutions per day: 11.27571237
mean anomaly at epoch: 60.5200°
orbit number at epoch: 11470

The dashed part of the orbit path shows where the satellite is in the earth's shadow,  

DLR